Temp
21 21 21 21 21 21 23 23 24 23 24 25 25 25 25 25 25 25 33 33 33 31 31 34 34 36 38 40 40 41 40 38 38 39 39 40 38 38 38 36 36 35 33 31 27
20 21 21 21 21 21 22 23 24 24 24 25 25 25 25 25 24 32 33 32 32 31 32 36 38 39 40 40 41 41 40 39 40 40 39 39 39 38 37 35 33 32 31 30 30
19 20 21 21 21 22 22 23 24 23 24 24 25 25 25 25 31 37 32 32 32 31 33 37 38 39 40 41 41 41 40 41 41 40 41 40 39 40 38 36 34 32 31 31 31
19 19 20 21 21 22 22 23 24 23 24 24 25 25 25 22 35 33 31 31 32 31 35 37 38 39 40 40 41 40 41 41 41 41 40 39 40 39 39 37 35 33 32 31 32
18 19 19 20 21 22 23 24 24 24 23 24 24 24 24 32 36 31 32 31 30 32 36 38 38 39 40 40 40 40 40 41 41 40 40 40 39 38 37 36 35 34 33 32 32
18 18 19 20 21 22 23 24 24 24 23 23 24 24 26 34 34 31 32 31 34 35 37 38 39 40 40 40 40 40 40 41 41 40 40 39 39 38 37 36 34 33 33 33 33
17 18 19 20 21 22 23 24 24 23 23 23 24 22 31 36 34 33 33 34 35 36 38 38 38 39 40 40 40 40 39 41 41 41 40 40 38 37 37 36 34 34 34 33 33
16 18 19 20 20 21 22 24 24 23 23 23 23 23 34 33 33 33 34 35 35 36 37 38 37 39 39 40 40 40 40 40 41 41 40 40 37 37 37 36 35 34 34 33 33
16 17 19 20 20 21 21 22 22 22 22 23 23 28 36 30 33 34 35 36 35 36 36 36 37 39 40 39 40 40 40 40 40 41 40 40 38 38 38 37 36 35 34 34 33
16 17 18 20 20 21 21 21 21 21 22 22 26 32 34 35 35 35 35 36 37 37 37 37 38 39 39 40 39 40 41 40 39 40 41 40 38 38 39 38 36 36 35 34 34
15 17 18 19 21 22 20 21 26 28 28 35 36 36 37 37 35 35 35 36 37 37 37 38 38 38 40 41 40 41 41 40 41 41 40 41 39 38 39 39 37 36 35 35 34
15 16 18 20 21 22 21 30 32 31 33 35 36 37 36 36 35 37 35 36 36 36 38 38 37 40 41 40 40 40 40 40 40 41 40 40 40 39 39 39 39 38 36 36 36
13 15 18 20 22 22 27 30 29 30 33 37 37 37 36 37 37 37 37 38 37 37 38 38 40 41 39 39 39 40 40 40 40 40 41 40 39 39 39 39 39 39 38 37 37
12 14 17 20 22 26 30 29 29 30 33 36 36 37 38 37 37 38 37 38 38 38 39 39 40 39 39 39 40 40 41 40 40 39 38 40 38 38 39 39 39 39 38 38 37
12 13 16 15 18 28 29 29 29 31 33 39 38 39 39 37 39 38 37 38 38 38 39 38 39 38 38 39 40 40 40 40 40 39 40 39 39 39 40 38 39 39 39 39 38
13 14 14 21 20 24 26 28 30 31 33 36 37 37 37 37 38 38 37 39 39 38 39 40 41 40 40 41 41 41 39 39 39 40 39 39 39 39 40 40 40 40 40 39 38
13 16 15 14 27 26 26 30 31 32 37 37 36 37 38 37 38 37 36 36 37 36 36 38 38 40 41 39 40 39 39 37 37 37 38 40 39 39 40 40 40 41 40 40 39
13 17 17 17 23 24 27 30 30 35 37 39 38 38 37 38 38 37 36 36 37 38 38 37 37 39 40 40 38 38 40 39 36 38 39 39 37 39 40 40 40 39 41 41 40
14 19 22 22 22 23 28 29 31 35 38 37 38 37 37 38 38 37 37 37 38 39 38 38 38 40 40 41 41 39 38 41 39 39 38 39 39 40 40 40 39 39 40 41 40
11 19 23 25 23 24 28 28 33 36 37 37 36 37 37 38 38 38 37 39 38 39 40 40 38 40 40 40 41 40 40 38 39 36 36 38 37 38 38 39 39 38 39 40 40
13 24 26 24 24 27 28 30 32 36 37 36 36 37 38 38 39 38 38 39 39 40 40 40 39 39 39 38 38 38 38 39 40 39 38 37 38 38 38 38 38 38 38 39 39
19 23 25 24 25 28 29 31 30 35 37 36 36 37 38 38 38 38 38 39 40 40 38 39 39 38 38 40 40 40 39 39 38 36 38 37 37 39 38 38 38 39 38 38 39
20 25 25 24 26 28 31 31 33 34 35 35 35 36 37 37 37 38 38 40 40 39 39 39 38 37 38 38 39 38 40 40 39 39 37 37 36 39 38 38 38 38 38 37 37
19 23 25 25 27 28 30 31 32 34 35 36 35 36 36 36 37 37 38 40 40 39 33 37 38 37 38 37 39 37 38 39 39 38 37 38 36 37 37 37 37 37 37 37 36
18 22 26 26 26 27 29 32 31 32 34 34 35 35 36 35 36 36 38 39 38 30 37 38 36 37 38 40 40 39 38 38 38 38 37 38 38 37 36 35 35 35 35 35 35
18 21 24 24 25 27 25 29 31 32 33 32 33 35 36 35 36 36 37 38 36 38 37 38 36 36 37 39 39 39 39 38 38 38 38 38 38 37 35 35 35 34 34 33 33
18 18 19 22 25 25 28 29 30 32 33 34 34 35 35 36 37 38 39 39 38 37 36 37 36 36 35 38 38 36 38 38 38 38 38 37 38 36 35 34 34 33 33 33 32
Height
802 800 797 794 790 787 784 782 779 778 777 776 775 775 774 774 774 774 769 767 767 767 767 765 764 758 751 740 734 728 747 768 762 758 758 739 756 754 756 767 768 769 782 795 808
803 800 797 793 790 786 783 781 778 776 776 775 774 774 774 774 774 769 765 765 766 766 766 762 754 751 742 739 731 732 750 762 747 748 751 748 753 755 763 776 783 787 794 799 804
804 800 796 793 789 785 782 779 776 775 774 774 773 773 774 774 770 753 759 764 765 765 765 760 756 749 744 736 738 734 755 743 743 744 736 748 754 743 757 776 782 793 797 801 802
804 800 796 792 788 785 781 777 774 773 773 773 772 773 774 776 775 756 759 762 764 766 765 759 753 753 746 749 740 750 743 744 742 742 742 749 746 756 756 769 778 789 796 801 802
804 800 796 792 787 783 779 775 773 772 772 772 772 773 775 770 756 757 758 761 764 766 761 756 754 749 751 747 745 748 745 741 738 744 742 745 753 765 769 772 781 790 797 800 803
803 800 796 791 786 782 777 774 772 771 771 771 773 774 774 768 756 757 761 763 763 762 758 755 750 747 749 750 751 744 746 744 740 748 748 755 761 762 774 776 786 792 796 798 804
803 799 795 790 785 780 775 771 771 771 771 771 773 774 768 755 756 759 761 761 761 760 756 755 754 753 745 751 743 745 758 742 745 746 754 747 768 775 771 777 788 792 795 799 805
802 798 794 789 785 779 774 771 772 771 771 772 774 776 756 755 757 759 759 759 760 760 758 756 757 752 751 742 748 754 747 764 749 747 750 753 789 770 769 778 787 791 794 799 804
801 797 793 789 784 779 775 773 773 773 773 773 775 771 753 754 755 754 756 757 760 760 760 760 757 753 746 762 760 752 762 762 764 740 749 754 779 767 765 775 785 790 794 798 803
800 796 792 788 783 779 777 776 774 774 774 775 772 769 750 747 747 751 754 754 756 757 759 760 755 760 757 755 774 764 755 756 767 755 749 753 769 767 763 770 781 786 791 795 800
800 795 790 786 782 778 777 777 775 771 767 745 744 740 737 738 746 750 752 753 754 756 768 756 767 770 750 743 744 742 746 758 749 744 752 751 764 769 763 764 775 780 788 791 795
799 794 789 784 779 776 775 765 759 763 757 741 739 737 737 741 748 745 750 754 757 768 756 761 771 742 734 740 751 753 756 755 751 746 752 752 761 760 762 762 765 772 781 784 788
798 793 787 781 776 775 771 764 764 762 755 729 729 734 737 737 739 742 744 742 754 762 757 760 748 734 746 756 762 754 754 754 762 754 748 753 767 765 759 757 757 762 769 774 780
797 792 787 778 779 773 764 765 764 762 761 734 733 728 729 731 740 729 737 738 746 756 748 752 732 746 754 756 751 759 738 747 754 766 781 750 788 769 760 764 761 761 765 768 773
795 791 787 787 780 770 766 766 764 761 782 710 718 708 716 732 719 730 733 734 747 747 746 755 745 755 760 753 741 751 739 751 753 762 758 763 774 763 752 768 762 758 759 762 767
793 789 785 783 780 772 769 766 763 774 772 726 715 722 727 726 721 722 734 729 728 742 738 734 725 737 741 734 735 734 752 755 755 755 781 763 770 767 754 751 746 743 748 756 762
788 785 784 784 769 770 769 764 773 769 712 721 723 717 719 728 725 729 742 748 753 768 764 748 746 731 727 745 741 748 762 787 796 790 787 746 768 759 740 739 741 738 739 746 754
783 778 773 772 770 770 768 765 774 729 716 696 704 711 723 716 720 730 739 749 736 738 746 765 773 742 731 740 755 756 750 766 802 787 771 758 784 765 736 736 738 741 733 735 747
778 771 767 764 765 768 764 765 745 720 701 707 705 718 723 711 715 726 732 735 729 725 748 750 753 722 726 726 730 752 764 732 756 751 769 757 758 741 738 741 742 742 737 734 740
781 769 757 756 760 762 760 748 725 706 696 699 719 708 722 714 719 720 726 714 721 716 710 720 751 719 725 723 724 737 733 769 759 791 800 768 772 768 758 751 745 746 740 736 736
780 758 744 751 758 750 743 734 723 696 694 711 710 706 705 707 704 711 718 709 705 710 711 717 731 735 727 745 748 751 755 745 738 750 776 785 771 744 754 751 750 746 742 739 740
772 757 741 749 753 730 728 721 716 705 690 703 702 696 697 694 702 709 712 705 691 698 723 715 728 745 740 723 720 723 741 744 765 781 764 767 775 735 743 745 746 743 744 742 742
766 744 739 743 738 723 714 713 708 704 698 702 709 699 691 697 709 698 701 685 687 699 709 713 733 753 746 734 726 737 728 729 736 742 764 779 774 735 740 743 746 748 743 746 745
769 743 733 734 725 716 709 708 709 696 694 690 696 695 700 703 691 698 697 684 683 694 702 706 722 738 745 742 728 749 738 730 734 758 762 759 762 751 746 749 748 749 748 747 749
766 739 715 716 720 717 709 696 704 703 691 691 696 694 698 712 704 702 691 686 690 709 700 709 736 727 720 709 713 725 734 731 745 743 757 744 750 742 748 755 757 756 755 755 755
759 745 726 723 713 705 713 703 693 694 691 700 698 690 690 704 696 700 691 686 704 698 708 703 730 728 729 713 715 722 721 726 731 736 739 739 744 732 746 750 756 758 758 760 761
761 759 757 729 717 714 703 702 695 685 683 681 688 689 692 688 679 673 670 671 684 700 712 711 720 733 744 722 722 744 725 723 724 725 733 750 737 737 749 756 759 759 759 762 763
Wind_Speed
18 19 19 19 20 18 19 19 14 10 7 7 6 6 5 5 6 6 9 2 5 7 7 8 9 12 12 9 12 12 4 9 12 14 15 8 16 15 16 15 14 18 20 23 29
19 19 19 20 21 19 20 19 15 9 7 7 6 5 5 4 8 16 10 9 6 9 8 9 8 6 10 4 6 13 10 8 6 9 4 7 17 14 16 16 20 22 23 22 25
21 21 20 20 22 21 21 20 15 8 6 7 4 6 4 2 8 8 12 13 10 11 9 9 10 10 6 6 1 7 12 5 12 8 2 11 10 4 10 18 16 21 21 19 20
22 23 22 22 23 22 21 21 13 6 5 5 3 8 6 4 6 6 6 15 13 11 11 11 9 12 8 1 0 5 5 5 8 8 2 14 9 17 17 19 20 21 21 19 17
22 23 24 24 24 25 22 20 10 3 5 3 6 9 4 8 9 3 3 16 13 11 13 10 10 9 8 2 5 8 8 3 6 8 10 8 15 15 18 20 21 21 19 18 16
23 24 25 25 25 27 24 17 5 2 3 2 10 10 6 13 5 7 11 13 13 13 12 10 7 7 8 3 9 6 4 2 5 9 7 15 11 19 17 20 20 18 18 17 17
24 24 26 26 27 29 24 9 2 1 1 5 10 6 10 2 4 9 11 14 13 13 9 8 5 10 3 8 2 6 9 10 11 11 7 17 10 18 18 19 18 17 16 16 16
25 25 26 25 27 29 17 2 1 2 3 7 9 6 6 6 6 10 12 12 11 10 9 6 8 11 9 5 11 12 15 12 11 10 10 8 13 16 17 18 17 16 15 15 16
26 26 26 26 27 25 8 4 3 4 6 7 5 9 7 7 11 13 13 14 13 11 7 4 10 14 8 13 14 11 9 18 11 8 12 10 16 16 17 16 16 15 15 15 15
27 27 26 25 27 18 3 0 3 5 4 5 10 8 8 12 14 14 14 12 14 12 10 12 9 12 12 14 10 11 9 14 14 10 11 10 18 14 16 17 16 15 15 15 16
28 28 27 26 26 16 4 3 6 7 13 11 10 8 9 8 14 13 15 15 16 14 15 14 11 12 16 12 9 11 3 8 10 7 8 11 18 14 14 16 16 16 15 15 16
29 29 28 26 25 8 6 8 8 6 9 21 13 17 2 14 12 14 18 14 15 16 17 9 15 15 6 2 5 8 8 9 7 7 10 7 14 16 14 14 17 17 17 16 16
29 29 28 27 16 3 10 12 4 8 7 16 17 16 14 15 12 17 21 19 17 19 18 15 17 13 6 11 11 12 11 11 8 10 12 4 12 15 16 14 16 16 17 17 17
30 28 27 29 5 10 10 4 8 6 6 15 16 15 21 14 14 21 25 15 11 19 16 15 5 9 12 15 16 16 10 5 7 7 13 13 9 16 18 15 15 17 17 16 17
31 29 25 13 15 8 6 7 9 6 6 19 20 13 19 19 11 20 24 15 15 14 11 16 11 15 16 15 12 6 2 7 11 12 16 11 9 18 18 18 19 17 18 18 17
30 28 27 7 11 14 14 10 8 8 12 9 11 18 22 20 13 21 20 18 13 15 17 15 13 16 17 15 8 4 5 6 9 13 12 10 9 14 17 16 16 22 22 19 19
32 25 23 13 7 3 8 10 8 12 9 10 19 22 25 17 20 22 24 22 17 16 16 18 12 13 14 12 8 9 12 8 7 9 8 10 7 8 4 9 5 7 23 22 20
33 26 17 17 11 9 10 9 15 15 19 4 17 21 26 23 22 21 22 21 23 20 15 16 16 21 13 14 11 13 18 10 4 11 10 6 7 5 8 3 3 6 13 22 21
31 17 16 17 16 13 8 15 21 20 18 9 12 18 24 24 23 22 25 24 25 23 20 17 18 22 18 19 16 14 14 12 6 4 5 9 5 3 7 5 2 7 13 15 20
19 16 20 14 14 16 11 24 21 26 17 15 17 16 22 27 25 24 24 25 25 26 20 8 13 20 14 15 15 11 11 7 6 5 6 7 2 3 6 1 4 5 9 14 19
11 6 8 15 15 10 18 25 29 22 16 15 16 17 20 21 25 22 22 18 25 25 21 20 12 19 16 15 15 13 11 11 14 5 5 6 8 11 7 4 4 1 3 6 8
10 8 12 16 11 13 19 29 23 29 22 17 16 18 17 21 24 25 23 24 19 23 25 22 10 13 20 18 20 19 19 16 10 9 8 8 11 14 10 5 2 4 3 6 11
5 10 11 16 11 18 21 26 28 26 26 21 22 15 16 14 19 23 25 21 17 22 23 19 16 14 16 9 11 14 14 18 15 9 5 7 7 8 8 6 1 5 5 5 6
5 5 9 10 14 22 22 26 28 28 26 23 22 22 19 15 17 16 21 19 22 15 10 20 17 19 16 15 16 19 21 18 13 9 12 13 12 12 10 4 4 1 3 8 9
5 8 6 9 16 21 21 22 26 27 27 20 23 25 22 16 19 19 17 19 12 10 13 18 22 20 21 17 20 20 21 16 17 14 14 2 6 11 11 5 3 2 3 4 5
6 5 8 13 14 16 21 24 26 25 24 21 23 26 22 19 17 15 19 17 18 17 16 21 15 20 21 23 10 12 21 20 19 16 14 16 8 15 10 4 3 1 2 1 4
14 11 7 10 15 13 16 23 24 18 26 26 25 20 22 22 16 15 18 13 15 17 18 19 17 16 20 19 16 18 16 15 14 14 16 12 6 11 8 3 3 5 2 0 3
Wind_Direction
14 12 10 8 3 1 352 349 340 329 318 310 289 259 257 269 277 267 253 157 202 215 204 238 243 255 247 249 251 249 44 54 16 46 99 123 89 88 81 85 71 88 112 127 130
10 8 6 4 1 357 351 346 338 322 312 310 281 242 238 269 271 256 233 240 220 186 213 224 238 253 243 226 258 267 79 69 45 63 87 60 91 132 108 96 96 100 109 126 136
8 4 2 360 358 354 348 344 335 315 306 310 268 205 203 248 271 223 192 217 201 192 255 273 279 271 264 278 290 348 62 31 76 30 23 120 95 128 141 115 122 126 130 138 135
7 3 359 356 355 352 346 341 331 309 306 304 232 180 183 229 236 86 177 186 186 201 254 251 243 248 267 172 91 256 92 33 57 99 139 104 131 66 66 95 124 130 135 140 139
2 1 358 353 351 348 342 337 327 295 305 287 182 170 163 215 257 106 173 168 178 207 230 235 251 259 267 357 240 282 79 342 83 105 79 130 92 84 92 110 125 132 139 145 137
359 357 357 352 348 345 338 333 319 287 306 235 169 178 238 239 105 131 153 170 189 207 222 240 271 346 311 304 291 20 329 302 117 125 168 109 136 111 111 124 131 142 145 147 144
357 354 353 353 347 343 337 329 298 308 273 170 169 185 250 319 163 165 174 189 196 212 220 232 280 262 349 244 4 282 254 197 155 156 170 125 157 106 132 136 142 148 150 144 154
354 351 350 351 347 344 342 16 118 93 127 152 173 234 279 157 184 181 184 191 197 214 252 209 250 274 265 351 259 235 223 165 143 179 133 215 106 131 145 146 149 153 152 154 158
351 349 347 348 346 346 0 95 108 106 131 144 192 230 224 154 194 192 191 189 191 202 209 225 247 253 232 245 224 214 219 128 150 210 147 230 119 140 159 153 153 159 159 163 164
347 346 344 345 343 344 15 125 164 120 164 232 272 228 213 208 187 178 190 205 187 194 202 219 230 242 215 229 221 186 212 141 146 174 204 120 113 155 167 159 162 165 166 168 170
345 342 341 341 338 329 304 236 207 199 209 227 177 244 138 137 155 188 183 191 197 198 215 203 222 219 222 229 1 323 191 135 112 133 244 175 137 155 172 168 168 167 171 178 177
344 341 337 336 332 307 281 253 44 342 279 214 243 228 240 170 181 181 180 186 197 203 215 185 230 225 235 87 248 246 246 164 133 154 251 151 153 150 178 188 168 172 173 180 178
345 341 337 333 325 255 265 286 316 321 257 221 204 210 192 203 208 176 189 207 195 206 202 223 206 232 185 198 223 228 230 166 215 181 244 166 165 161 176 191 168 182 174 181 174
342 341 339 335 295 324 271 184 306 297 269 193 197 213 201 204 221 173 200 207 198 208 204 230 178 180 204 223 222 221 207 337 227 198 220 204 228 178 171 188 189 188 180 187 171
337 338 333 338 303 275 21 309 312 244 252 163 171 190 182 196 151 176 193 209 220 214 204 211 194 204 208 225 211 290 130 222 240 229 256 189 269 172 177 184 189 200 188 188 181
330 332 331 338 258 263 294 291 265 230 236 165 143 180 174 201 178 162 188 219 234 215 212 220 204 199 214 220 210 159 224 227 242 252 225 240 227 149 185 195 201 186 185 195 183
326 319 310 276 225 315 294 260 219 233 219 175 180 190 192 188 182 175 188 197 206 206 203 224 203 216 233 182 195 213 206 202 216 222 249 171 191 274 38 77 354 268 179 182 186
324 314 289 240 257 261 252 223 235 212 225 85 187 192 202 189 193 180 190 198 214 210 190 207 204 207 195 211 186 218 230 251 181 216 184 156 236 235 50 73 177 267 258 177 187
327 307 261 249 235 223 231 220 215 237 211 207 209 195 203 204 198 189 203 207 202 218 235 195 227 187 195 222 211 195 242 278 295 250 297 169 176 228 167 233 239 238 233 202 180
319 295 261 220 195 196 221 231 227 231 258 265 222 218 207 207 197 194 201 207 210 212 234 249 214 177 191 215 215 269 214 216 251 242 234 153 155 95 150 188 90 252 220 234 180
282 253 121 171 195 207 220 225 230 241 229 243 244 229 230 208 204 215 210 211 211 202 214 242 246 179 182 208 205 211 244 239 279 244 298 214 136 104 98 9 331 169 203 242 199
281 237 145 175 207 221 222 224 236 228 240 230 268 265 241 221 216 213 215 219 198 218 202 225 208 239 188 211 228 216 207 228 246 188 257 310 109 123 119 108 354 327 90 273 198
261 251 166 203 224 229 219 229 231 238 233 206 234 242 259 254 236 218 227 220 183 219 207 205 234 218 221 170 215 225 235 222 223 263 208 240 122 128 124 128 96 312 310 167 237
274 239 213 209 249 261 234 217 223 231 240 232 230 236 232 243 245 238 215 213 207 209 206 204 214 238 218 202 202 210 234 235 219 205 233 212 148 179 135 68 98 200 249 300 176
243 245 302 216 222 236 254 236 222 217 228 238 236 229 227 224 232 219 231 202 193 156 201 208 223 224 249 244 207 193 218 208 228 239 256 322 237 92 102 76 50 358 318 268 263
290 280 310 254 300 246 226 245 220 221 212 215 236 220 232 221 238 209 233 198 190 184 218 207 217 230 238 242 233 248 190 209 213 233 241 256 266 101 105 166 213 243 292 242 250
270 293 271 280 238 251 235 223 245 228 224 230 222 233 219 229 230 247 220 249 182 195 212 209 219 214 233 229 237 234 243 234 230 221 242 247 250 118 131 90 355 317 231 227 115